Location: Newark
(35.6799°N, 139.7636°E)
Time: 07:40:01
(UTC+00:00)

Explorer 7 - Pass Details

Date: 16 December 2019
Orbit: 485 x 679 km, 50.3° (Epoch: 29 January)

Event Time Altitude Azimuth Distance (km) Brightness Sun altitude
Rises 09:01:31 0° 314° (NW) 3,032 11.0 -18.2°
Reaches altitude 10° 09:04:23 10° 330° (NNW) 2,118 10.0 -18.8°
Enters shadow 09:08:02 22° 18° (NNE) 1,464 8.7 -19.5°
Maximum altitude 09:08:12 22° 21° (NNE) 1,462 - -19.5°
Drops below altitude 10° 09:11:58 10° 72° (ENE) 2,086 - -20.3°
Sets 09:14:45 0° 87° (E) 2,974 - -20.8°
